Time,TemperatureF,DewpointF,PressureIn,WindDirection,WindDirectionDegrees,WindSpeedMPH,WindSpeedGustMPH,Humidity,HourlyPrecipIn,Conditions,Clouds,dailyrainin,SoftwareType,DateUTC
2013-03-12 00:02:00,34.0,32.0,29.71,WSW,244,7.0,-999.0,94,-99.99,,,-99.99,,2013-03-12 04:02:00,
2013-03-12 00:13:00,34.0,32.0,29.71,WSW,244,7.0,-999.0,94,-99.99,,,-99.99,,2013-03-12 04:13:00,
2013-03-12 00:22:00,34.0,32.0,29.71,SW,234,7.0,-999.0,94,-99.99,,,-99.99,,2013-03-12 04:22:00,
2013-03-12 00:32:00,34.0,32.0,29.71,SW,229,6.0,-999.0,94,-99.99,,,-99.99,,2013-03-12 04:32:00,
2013-03-12 00:43:00,34.0,32.0,29.71,SW,229,6.0,-999.0,94,-99.99,,,-99.99,,2013-03-12 04:43:00,
2013-03-12 00:52:00,34.0,32.0,29.72,WSW,243,5.0,-999.0,94,-99.99,,,-99.99,,2013-03-12 04:52:00,
2013-03-12 01:02:00,34.0,32.0,29.72,SW,225,6.0,-999.0,94,-99.99,,,-99.99,,2013-03-12 05:02:00,
2013-03-12 01:12:00,34.0,32.0,29.72,SW,225,6.0,-999.0,94,-99.99,,,-99.99,,2013-03-12 05:12:00,
2013-03-12 01:22:00,34.0,32.0,29.73,SW,230,7.0,-999.0,94,-99.99,,,-99.99,,2013-03-12 05:22:00,
2013-03-12 01:32:00,34.0,32.0,29.73,WSW,252,6.0,-999.0,94,-99.99,,,-99.99,,2013-03-12 05:32:00,
2013-03-12 01:42:00,34.0,32.0,29.73,WSW,252,6.0,-999.0,94,-99.99,,,-99.99,,2013-03-12 05:42:00,
2013-03-12 01:52:00,34.0,32.0,29.73,WSW,237,7.0,-999.0,94,-99.99,,,-99.99,,2013-03-12 05:52:00,
2013-03-12 02:02:00,34.0,32.0,29.73,West,275,7.0,-999.0,94,-99.99,,,-99.99,,2013-03-12 06:02:00,
2013-03-12 02:12:00,34.0,32.0,29.73,West,275,7.0,-999.0,94,-99.99,,,-99.99,,2013-03-12 06:12:00,
2013-03-12 02:22:00,34.0,32.0,29.74,WSW,242,6.0,-999.0,94,-99.99,,,-99.99,,2013-03-12 06:22:00,
2013-03-12 02:32:00,34.0,32.0,29.74,WSW,253,6.0,-999.0,94,-99.99,,,-99.99,,2013-03-12 06:32:00,
2013-03-12 02:42:00,34.0,32.0,29.74,WSW,253,6.0,-999.0,94,-99.99,,,-99.99,,2013-03-12 06:42:00,
2013-03-12 02:52:00,33.0,31.0,29.75,West,270,4.0,-999.0,94,-99.99,,,-99.99,,2013-03-12 06:52:00,
2013-03-12 03:02:00,33.0,31.0,29.76,WNW,282,5.0,-999.0,94,-99.99,,,-99.99,,2013-03-12 07:02:00,
2013-03-12 03:12:00,33.0,31.0,29.76,WNW,282,5.0,-999.0,94,-99.99,,,-99.99,,2013-03-12 07:12:00,
2013-03-12 03:22:00,33.0,31.0,29.76,WSW,244,4.0,-999.0,94,-99.99,,,-99.99,,2013-03-12 07:22:00,
2013-03-12 03:32:00,33.0,31.0,29.78,WSW,257,6.0,-999.0,94,-99.99,,,-99.99,,2013-03-12 07:32:00,
2013-03-12 03:42:00,33.0,31.0,29.78,WSW,257,6.0,-999.0,94,-99.99,,,-99.99,,2013-03-12 07:42:00,
2013-03-12 03:52:00,33.0,31.0,29.78,West,273,7.0,-999.0,94,-99.99,,,-99.99,,2013-03-12 07:52:00,
2013-03-12 04:02:00,32.0,30.0,29.79,SW,227,6.0,-999.0,94,-99.99,,,-99.99,,2013-03-12 08:02:00,
2013-03-12 04:13:00,32.0,30.0,29.79,SW,227,6.0,-999.0,94,-99.99,,,-99.99,,2013-03-12 08:13:00,
2013-03-12 04:22:00,32.0,30.0,29.79,West,278,8.0,-999.0,94,-99.99,,,-99.99,,2013-03-12 08:22:00,
2013-03-12 04:33:00,32.0,30.0,29.79,West,274,6.0,-999.0,94,-99.99,,,-99.99,,2013-03-12 08:33:00,
2013-03-12 04:42:00,32.0,30.0,29.79,West,274,6.0,-999.0,94,-99.99,,,-99.99,,2013-03-12 08:42:00,
2013-03-12 04:52:00,32.0,30.0,29.79,West,270,5.0,-999.0,94,-99.99,,,-99.99,,2013-03-12 08:52:00,
2013-03-12 05:03:00,31.0,29.0,29.79,West,275,6.0,-999.0,94,-99.99,,,-99.99,,2013-03-12 09:03:00,
2013-03-12 05:12:00,31.0,29.0,29.79,West,275,6.0,-999.0,94,-99.99,,,-99.99,,2013-03-12 09:12:00,
2013-03-12 05:22:00,31.0,29.0,29.79,West,261,8.0,-999.0,94,-99.99,,,-99.99,,2013-03-12 09:22:00,
2013-03-12 05:32:00,31.0,29.0,29.80,West,275,8.0,-999.0,94,-99.99,,,-99.99,,2013-03-12 09:32:00,
2013-03-12 05:42:00,31.0,29.0,29.80,West,275,8.0,-999.0,94,-99.99,,,-99.99,,2013-03-12 09:42:00,
2013-03-12 05:52:00,31.0,29.0,29.80,West,271,7.0,-999.0,93,-99.99,,,-99.99,,2013-03-12 09:52:00,
2013-03-12 06:02:00,31.0,29.0,29.82,WSW,252,5.0,-999.0,93,-99.99,,,-99.99,,2013-03-12 10:02:00,
2013-03-12 06:12:00,31.0,29.0,29.82,WSW,252,5.0,-999.0,93,-99.99,,,-99.99,,2013-03-12 10:12:00,
2013-03-12 06:22:00,31.0,29.0,29.82,WSW,257,4.0,-999.0,92,-99.99,,,-99.99,,2013-03-12 10:22:00,
2013-03-12 06:32:00,31.0,29.0,29.83,West,273,8.0,-999.0,92,-99.99,,,-99.99,,2013-03-12 10:32:00,
2013-03-12 06:42:00,31.0,29.0,29.83,West,273,8.0,-999.0,92,-99.99,,,-99.99,,2013-03-12 10:42:00,
2013-03-12 06:53:00,31.0,29.0,29.84,West,264,5.0,-999.0,91,-99.99,,,-99.99,,2013-03-12 10:53:00,
2013-03-12 07:02:00,31.0,29.0,29.84,West,264,5.0,-999.0,91,-99.99,,,-99.99,,2013-03-12 11:02:00,
2013-03-12 07:12:00,31.0,29.0,29.84,West,264,5.0,-999.0,91,-99.99,,,-99.99,,2013-03-12 11:12:00,
2013-03-12 07:22:00,31.0,28.0,29.84,West,275,7.0,-999.0,90,-99.99,,,-99.99,,2013-03-12 11:22:00,
2013-03-12 07:32:00,31.0,28.0,29.84,West,275,7.0,-999.0,90,-99.99,,,-99.99,,2013-03-12 11:32:00,
2013-03-12 07:42:00,31.0,28.0,29.84,West,275,7.0,-999.0,90,-99.99,,,-99.99,,2013-03-12 11:42:00,
2013-03-12 07:52:00,30.0,27.0,29.85,West,266,7.0,-999.0,90,-99.99,,,-99.99,,2013-03-12 11:52:00,
2013-03-12 08:02:00,30.0,27.0,29.85,West,266,7.0,-999.0,90,-99.99,,,-99.99,,2013-03-12 12:02:00,
2013-03-12 08:12:00,30.0,27.0,29.85,West,266,7.0,-999.0,90,-99.99,,,-99.99,,2013-03-12 12:12:00,
2013-03-12 08:22:00,30.0,27.0,29.85,WNW,284,7.0,-999.0,89,-99.99,,,-99.99,,2013-03-12 12:22:00,
2013-03-12 08:32:00,30.0,27.0,29.85,WSW,252,4.0,-999.0,88,-99.99,,,-99.99,,2013-03-12 12:32:00,
2013-03-12 08:42:00,30.0,27.0,29.85,WSW,252,4.0,-999.0,88,-99.99,,,-99.99,,2013-03-12 12:42:00,
2013-03-12 08:52:00,30.0,27.0,29.86,West,261,4.0,-999.0,88,-99.99,,,-99.99,,2013-03-12 12:52:00,
2013-03-12 09:02:00,30.0,27.0,29.86,West,261,4.0,-999.0,88,-99.99,,,-99.99,,2013-03-12 13:02:00,
2013-03-12 09:12:00,30.0,27.0,29.86,West,261,4.0,-999.0,88,-99.99,,,-99.99,,2013-03-12 13:12:00,
2013-03-12 09:22:00,30.0,27.0,29.86,West,265,3.0,-999.0,87,-99.99,,,-99.99,,2013-03-12 13:22:00,
2013-03-12 09:33:00,30.0,27.0,29.87,WSW,253,3.0,-999.0,88,-99.99,,,-99.99,,2013-03-12 13:33:00,
2013-03-12 09:43:00,30.0,27.0,29.87,WSW,253,3.0,-999.0,88,-99.99,,,-99.99,,2013-03-12 13:43:00,
2013-03-12 09:52:00,31.0,28.0,29.87,West,281,7.0,-999.0,88,-99.99,,,-99.99,,2013-03-12 13:52:00,
2013-03-12 10:02:00,31.0,28.0,29.87,West,281,7.0,-999.0,88,-99.99,,,-99.99,,2013-03-12 14:02:00,
2013-03-12 10:12:00,31.0,28.0,29.87,West,281,7.0,-999.0,88,-99.99,,,-99.99,,2013-03-12 14:12:00,
2013-03-12 10:22:00,32.0,27.0,29.88,NW,324,7.0,-999.0,80,-99.99,,,-99.99,,2013-03-12 14:22:00,
2013-03-12 10:33:00,32.0,25.0,29.88,WNW,296,9.0,-999.0,75,-99.99,,,-99.99,,2013-03-12 14:33:00,
2013-03-12 10:42:00,32.0,25.0,29.88,WNW,296,9.0,-999.0,75,-99.99,,,-99.99,,2013-03-12 14:42:00,
2013-03-12 10:53:00,32.0,25.0,29.89,NW,319,8.0,-999.0,75,-99.99,,,-99.99,,2013-03-12 14:53:00,
2013-03-12 11:03:00,32.0,26.0,29.89,WSW,246,7.0,-999.0,78,-99.99,,,-99.99,,2013-03-12 15:03:00,
2013-03-12 11:13:00,32.0,26.0,29.89,WSW,246,7.0,-999.0,78,-99.99,,,-99.99,,2013-03-12 15:13:00,
2013-03-12 11:22:00,32.0,26.0,29.90,West,275,7.0,-999.0,79,-99.99,,,-99.99,,2013-03-12 15:22:00,
2013-03-12 11:32:00,32.0,27.0,29.90,WSW,258,5.0,-999.0,80,-99.99,,,-99.99,,2013-03-12 15:32:00,
2013-03-12 11:42:00,32.0,27.0,29.90,WSW,258,5.0,-999.0,80,-99.99,,,-99.99,,2013-03-12 15:42:00,
2013-03-12 11:52:00,32.0,27.0,29.90,West,263,5.0,-999.0,82,-99.99,,,-99.99,,2013-03-12 15:52:00,
2013-03-12 12:03:00,33.0,28.0,29.89,WSW,249,5.0,-999.0,82,-99.99,,,-99.99,,2013-03-12 16:03:00,
2013-03-12 12:12:00,33.0,28.0,29.89,WSW,249,5.0,-999.0,82,-99.99,,,-99.99,,2013-03-12 16:12:00,
2013-03-12 12:22:00,33.0,28.0,29.90,WSW,252,8.0,-999.0,81,-99.99,,,-99.99,,2013-03-12 16:22:00,
2013-03-12 12:33:00,33.0,28.0,29.91,West,267,6.0,-999.0,82,-99.99,,,-99.99,,2013-03-12 16:33:00,
2013-03-12 12:43:00,33.0,28.0,29.91,West,267,6.0,-999.0,82,-99.99,,,-99.99,,2013-03-12 16:43:00,
2013-03-12 12:52:00,33.0,28.0,29.91,West,279,7.0,-999.0,81,-99.99,,,-99.99,,2013-03-12 16:52:00,
2013-03-12 13:03:00,33.0,28.0,29.91,WSW,240,6.0,-999.0,83,-99.99,,,-99.99,,2013-03-12 17:03:00,
2013-03-12 13:13:00,33.0,28.0,29.91,WSW,240,6.0,-999.0,83,-99.99,,,-99.99,,2013-03-12 17:13:00,
2013-03-12 13:22:00,33.0,28.0,29.91,WSW,249,6.0,-999.0,80,-99.99,,,-99.99,,2013-03-12 17:22:00,
2013-03-12 13:34:00,33.0,28.0,29.91,WSW,242,5.0,-999.0,80,-99.99,,,-99.99,,2013-03-12 17:34:00,
2013-03-12 13:43:00,33.0,28.0,29.91,WSW,242,5.0,-999.0,80,-99.99,,,-99.99,,2013-03-12 17:43:00,
2013-03-12 13:53:00,33.0,28.0,29.91,WSW,254,6.0,-999.0,80,-99.99,,,-99.99,,2013-03-12 17:53:00,
2013-03-12 14:03:00,33.0,28.0,29.91,West,269,6.0,-999.0,82,-99.99,,,-99.99,,2013-03-12 18:03:00,
2013-03-12 14:13:00,33.0,28.0,29.91,WSW,238,6.0,-999.0,80,-99.99,,,-99.99,,2013-03-12 18:13:00,
2013-03-12 14:23:00,33.0,28.0,29.91,WSW,238,6.0,-999.0,80,-99.99,,,-99.99,,2013-03-12 18:23:00,
2013-03-12 14:33:00,33.0,27.0,29.91,WSW,254,6.0,-999.0,78,-99.99,,,-99.99,,2013-03-12 18:33:00,
2013-03-12 14:42:00,33.0,27.0,29.91,WSW,254,6.0,-999.0,78,-99.99,,,-99.99,,2013-03-12 18:42:00,
2013-03-12 14:53:00,33.0,27.0,29.91,WSW,254,8.0,-999.0,78,-99.99,,,-99.99,,2013-03-12 18:53:00,
2013-03-12 15:03:00,32.0,27.0,29.91,WSW,254,7.0,-999.0,80,-99.99,,,-99.99,,2013-03-12 19:03:00,
2013-03-12 15:13:00,32.0,27.0,29.91,WSW,254,7.0,-999.0,80,-99.99,,,-99.99,,2013-03-12 19:13:00,
2013-03-12 15:23:00,33.0,28.0,29.91,West,280,6.0,-999.0,80,-99.99,,,-99.99,,2013-03-12 19:23:00,
2013-03-12 15:33:00,32.0,26.0,29.91,SW,236,9.0,-999.0,79,-99.99,,,-99.99,,2013-03-12 19:33:00,
2013-03-12 15:43:00,32.0,26.0,29.91,SW,236,9.0,-999.0,79,-99.99,,,-99.99,,2013-03-12 19:43:00,
2013-03-12 15:53:00,33.0,26.0,29.91,West,260,8.0,-999.0,76,-99.99,,,-99.99,,2013-03-12 19:53:00,
2013-03-12 16:02:00,33.0,25.0,29.92,SW,224,8.0,-999.0,73,-99.99,,,-99.99,,2013-03-12 20:02:00,
2013-03-12 16:12:00,33.0,25.0,29.92,SW,224,8.0,-999.0,73,-99.99,,,-99.99,,2013-03-12 20:12:00,
2013-03-12 16:23:00,32.0,25.0,29.92,West,269,8.0,-999.0,74,-99.99,,,-99.99,,2013-03-12 20:23:00,
2013-03-12 16:33:00,32.0,25.0,29.93,WSW,249,8.0,-999.0,76,-99.99,,,-99.99,,2013-03-12 20:33:00,
2013-03-12 16:42:00,32.0,25.0,29.93,WSW,249,8.0,-999.0,76,-99.99,,,-99.99,,2013-03-12 20:42:00,
2013-03-12 16:53:00,32.0,26.0,29.92,SW,223,5.0,-999.0,79,-99.99,,,-99.99,,2013-03-12 20:53:00,
2013-03-12 17:03:00,32.0,27.0,29.93,SW,236,7.0,-999.0,80,-99.99,,,-99.99,,2013-03-12 21:03:00,
2013-03-12 17:13:00,32.0,27.0,29.93,SW,236,7.0,-999.0,80,-99.99,,,-99.99,,2013-03-12 21:13:00,
2013-03-12 17:22:00,32.0,27.0,29.93,WSW,251,8.0,-999.0,80,-99.99,,,-99.99,,2013-03-12 21:22:00,
2013-03-12 17:33:00,32.0,26.0,29.93,West,277,8.0,-999.0,78,-99.99,,,-99.99,,2013-03-12 21:33:00,
2013-03-12 17:43:00,32.0,26.0,29.93,West,277,8.0,-999.0,78,-99.99,,,-99.99,,2013-03-12 21:43:00,
2013-03-12 17:53:00,32.0,25.0,29.93,West,268,8.0,-999.0,75,-99.99,,,-99.99,,2013-03-12 21:53:00,
2013-03-12 18:02:00,32.0,25.0,29.93,SW,234,8.0,-999.0,75,-99.99,,,-99.99,,2013-03-12 22:02:00,
2013-03-12 18:12:00,32.0,25.0,29.93,SW,234,8.0,-999.0,75,-99.99,,,-99.99,,2013-03-12 22:12:00,
2013-03-12 18:22:00,32.0,25.0,29.93,West,267,5.0,-999.0,75,-99.99,,,-99.99,,2013-03-12 22:22:00,
2013-03-12 18:33:00,32.0,26.0,29.93,WSW,252,8.0,-999.0,77,-99.99,,,-99.99,,2013-03-12 22:33:00,
2013-03-12 18:43:00,32.0,26.0,29.93,WSW,252,8.0,-999.0,77,-99.99,,,-99.99,,2013-03-12 22:43:00,
2013-03-12 18:53:00,32.0,26.0,29.94,West,273,6.0,-999.0,78,-99.99,,,-99.99,,2013-03-12 22:53:00,
2013-03-12 19:02:00,31.0,25.0,29.93,West,259,7.0,-999.0,79,-99.99,,,-99.99,,2013-03-12 23:02:00,
2013-03-12 19:12:00,31.0,25.0,29.93,West,259,7.0,-999.0,79,-99.99,,,-99.99,,2013-03-12 23:12:00,
2013-03-12 19:22:00,31.0,25.0,29.93,West,259,7.0,-999.0,79,-99.99,,,-99.99,,2013-03-12 23:22:00,
2013-03-12 19:34:00,31.0,26.0,29.93,WSW,247,4.0,-999.0,80,-99.99,,,-99.99,,2013-03-12 23:34:00,
2013-03-12 19:43:00,31.0,26.0,29.93,WSW,247,4.0,-999.0,80,-99.99,,,-99.99,,2013-03-12 23:43:00,
2013-03-12 19:52:00,31.0,26.0,29.93,WSW,251,4.0,-999.0,80,-99.99,,,-99.99,,2013-03-12 23:52:00,
2013-03-12 20:03:00,31.0,26.0,29.94,WSW,242,5.0,-999.0,80,-99.99,,,-99.99,,2013-03-13 00:03:00,
2013-03-12 20:13:00,31.0,26.0,29.94,WSW,242,5.0,-999.0,80,-99.99,,,-99.99,,2013-03-13 00:13:00,
2013-03-12 20:23:00,31.0,26.0,29.94,WSW,242,5.0,-999.0,80,-99.99,,,-99.99,,2013-03-13 00:23:00,
2013-03-12 20:33:00,31.0,26.0,29.94,West,262,3.0,-999.0,80,-99.99,,,-99.99,,2013-03-13 00:33:00,
2013-03-12 20:42:00,31.0,26.0,29.94,West,262,3.0,-999.0,80,-99.99,,,-99.99,,2013-03-13 00:42:00,
2013-03-12 20:53:00,31.0,26.0,29.95,West,263,4.0,-999.0,81,-99.99,,,-99.99,,2013-03-13 00:53:00,
2013-03-12 21:03:00,31.0,26.0,29.95,WNW,288,5.0,-999.0,81,-99.99,,,-99.99,,2013-03-13 01:03:00,
2013-03-12 21:13:00,31.0,26.0,29.95,WNW,288,5.0,-999.0,81,-99.99,,,-99.99,,2013-03-13 01:13:00,
2013-03-12 21:22:00,31.0,26.0,29.95,WNW,292,4.0,-999.0,82,-99.99,,,-99.99,,2013-03-13 01:22:00,
2013-03-12 21:33:00,31.0,27.0,29.95,West,271,3.0,-999.0,84,-99.99,,,-99.99,,2013-03-13 01:33:00,
2013-03-12 21:43:00,31.0,27.0,29.95,West,271,3.0,-999.0,84,-99.99,,,-99.99,,2013-03-13 01:43:00,
2013-03-12 21:52:00,31.0,27.0,29.95,West,271,3.0,-999.0,84,-99.99,,,-99.99,,2013-03-13 01:52:00,
2013-03-12 22:03:00,30.0,26.0,29.95,West,271,1.0,-999.0,85,-99.99,,,-99.99,,2013-03-13 02:03:00,
2013-03-12 22:12:00,30.0,26.0,29.95,West,271,1.0,-999.0,85,-99.99,,,-99.99,,2013-03-13 02:12:00,
2013-03-12 22:23:00,30.0,26.0,29.95,West,271,1.0,-999.0,86,-99.99,,,-99.99,,2013-03-13 02:23:00,
2013-03-12 22:32:00,30.0,27.0,29.95,West,271,2.0,-999.0,87,-99.99,,,-99.99,,2013-03-13 02:32:00,
2013-03-12 22:43:00,30.0,27.0,29.95,West,271,2.0,-999.0,87,-99.99,,,-99.99,,2013-03-13 02:43:00,
2013-03-12 22:52:00,30.0,27.0,29.95,West,274,1.0,-999.0,88,-99.99,,,-99.99,,2013-03-13 02:52:00,
2013-03-12 23:02:00,30.0,27.0,29.95,West,281,2.0,-999.0,88,-99.99,,,-99.99,,2013-03-13 03:02:00,
2013-03-12 23:13:00,30.0,27.0,29.95,West,281,2.0,-999.0,88,-99.99,,,-99.99,,2013-03-13 03:13:00,
2013-03-12 23:22:00,30.0,27.0,29.95,West,275,0.0,-999.0,88,-99.99,,,-99.99,,2013-03-13 03:22:00,
2013-03-12 23:32:00,29.0,26.0,29.95,NW,315,5.0,-999.0,88,-99.99,,,-99.99,,2013-03-13 03:32:00,
2013-03-12 23:42:00,29.0,26.0,29.95,NW,315,5.0,-999.0,88,-99.99,,,-99.99,,2013-03-13 03:42:00,
2013-03-12 23:52:00,29.0,26.0,29.95,WNW,296,6.0,-999.0,88,-99.99,,,-99.99,,2013-03-13 03:52:00,